Temperature
18 17 16 15 14 14 13 12 11 11 10 10 10 9 9 9 9 9 9 9 8 8 8 8 8 9 9 10 10 10 10 10 11 11 10 10 10 10 10 11 12 11 12
19 18 16 15 14 14 13 12 11 11 10 10 9 9 9 9 9 9 9 8 8 8 8 8 8 8 9 9 10 10 10 10 11 11 10 10 9 9 9 10 10 10 10
19 18 17 16 14 14 13 12 12 11 11 10 10 9 9 9 9 9 9 8 8 8 8 8 8 9 9 9 10 10 10 10 10 10 10 10 9 9 9 9 9 9 9
19 18 17 16 15 14 13 12 12 11 11 10 10 9 9 9 9 9 9 9 8 8 8 9 9 9 9 10 10 10 10 11 10 10 10 9 9 8 8 8 8 9 9
19 18 17 16 15 14 13 12 12 11 11 10 10 9 9 9 9 8 9 8 8 9 9 9 9 9 9 10 10 10 10 10 10 10 10 9 8 7 7 7 8 8 8
19 18 17 16 15 14 13 12 12 12 11 10 10 9 9 9 8 8 8 9 9 9 9 9 9 9 9 10 10 10 10 10 10 10 9 9 8 7 7 7 7 7 7
19 18 17 16 14 13 13 12 12 11 11 11 10 10 9 9 9 9 9 9 9 9 9 9 9 9 9 9 10 10 10 10 9 9 9 9 8 7 7 7 7 7 7
19 18 17 15 14 13 12 12 12 11 11 10 10 10 9 9 9 9 9 9 9 9 9 9 9 9 9 9 9 10 9 9 9 9 9 9 8 7 7 7 7 7 7
18 17 17 15 14 13 12 12 11 11 11 10 10 10 9 9 9 9 9 9 9 9 9 9 9 9 9 9 9 9 9 9 9 9 9 9 8 7 7 7 7 7 7
17 17 16 15 14 13 12 11 11 11 11 10 10 10 10 9 9 9 9 9 9 9 9 9 9 9 9 9 9 9 9 9 9 9 9 8 8 8 7 7 7 7 7
17 17 16 15 14 13 12 11 11 11 10 10 10 10 10 10 10 10 10 9 9 9 9 9 9 9 9 9 9 9 9 9 9 9 9 8 8 8 7 8 8 7 7
18 18 16 15 14 13 12 11 11 11 10 10 10 10 10 10 10 10 10 10 9 9 9 9 9 9 9 9 9 9 9 9 9 8 8 8 8 8 8 7 8 7 7
18 18 17 16 14 13 13 12 11 11 10 10 10 10 10 10 10 10 10 10 10 9 9 9 9 9 9 9 9 9 9 8 8 8 8 8 8 8 7 7 7 7 7
18 17 17 16 15 14 13 12 12 11 11 11 11 10 10 10 10 10 10 10 9 9 9 9 9 9 8 8 8 8 8 8 8 8 8 8 8 8 7 7 7 6 6
17 17 17 16 15 14 13 12 12 11 11 11 10 10 10 10 10 10 10 9 9 9 9 9 8 8 8 8 8 8 8 8 8 8 8 8 8 8 7 7 6 6 5
17 17 16 16 15 14 13 13 12 12 11 10 10 10 10 10 9 9 9 9 9 9 8 8 8 8 8 8 8 8 8 8 8 8 8 8 8 7 7 7 6 5 5
17 17 16 15 15 14 13 13 12 11 11 10 10 10 9 9 9 9 9 9 9 8 8 8 8 8 8 8 8 8 8 8 8 8 7 7 7 7 7 7 7 6 5
17 17 16 15 15 14 13 12 12 11 11 10 10 9 9 9 9 8 8 8 8 8 7 7 7 7 7 7 7 7 7 7 7 7 7 7 7 7 7 7 7 7 6
18 17 16 15 15 14 13 12 11 11 10 10 9 9 9 9 8 8 8 8 8 7 7 7 7 7 7 7 7 7 7 7 7 7 7 7 7 7 7 7 7 7 7
17 17 16 15 14 13 13 12 11 11 10 10 10 10 9 9 8 8 8 8 7 7 7 7 7 7 6 6 6 6 6 7 7 7 7 7 7 7 7 7 7 7 7
17 16 15 15 14 13 13 12 12 11 11 11 10 10 9 9 9 8 8 8 7 7 7 7 6 6 6 6 5 5 6 6 6 7 7 7 8 8 8 8 7 7 7
16 15 15 14 14 13 13 12 11 11 11 10 10 10 10 9 9 8 8 8 7 7 7 6 6 6 6 5 5 4 4 5 6 7 7 7 8 8 8 8 8 7 7
15 15 14 14 13 13 12 11 11 11 11 10 10 10 9 9 9 8 8 8 7 7 6 6 6 5 5 5 5 4 3 4 4 5 5 5 5 6 6 6 7 7 7
14 14 14 13 13 12 12 11 11 11 10 10 10 9 9 9 8 8 8 7 7 6 6 6 6 5 5 4 4 4 4 3 3 3 4 4 4 4 4 5 5 5 5
13 13 13 13 12 12 11 11 11 11 10 10 10 9 9 9 8 8 7 7 7 6 6 6 5 5 5 4 4 4 3 3 2 1 1 2 3 4 4 4 4 4 4
13 12 12 12 12 11 11 11 10 10 10 10 9 9 9 9 8 8 7 7 6 6 6 6 5 5 4 4 4 3 3 2 2 2 1 1 2 3 3 3 3 3 3
Wind_Speed
8 16 23 23 21 19 17 15 14 12 12 11 10 9 9 10 10 10 11 11 12 13 13 13 13 14 14 15 15 16 17 18 19 20 20 19 19 19 18 18 18 18 19
11 22 25 24 22 20 18 16 15 13 12 11 10 10 10 10 10 10 10 11 11 11 12 12 12 13 13 14 14 15 16 17 17 18 18 18 16 18 18 18 18 17 18
12 25 25 25 23 21 19 17 16 14 13 12 11 10 10 10 9 9 10 10 10 10 11 11 11 12 12 13 14 14 15 16 16 17 18 18 15 16 17 17 17 17 17
18 25 23 25 24 22 20 18 17 15 14 13 11 10 10 9 9 9 9 9 9 9 10 10 10 11 11 12 12 13 13 14 15 16 17 16 14 14 16 16 16 16 16
18 24 22 26 24 22 21 19 18 16 15 13 12 11 10 10 9 9 9 8 8 8 8 9 9 9 10 10 11 11 12 12 14 16 17 16 14 12 14 14 14 14 15
15 22 22 26 24 23 21 20 18 17 16 14 13 12 11 10 9 9 8 8 8 7 7 7 8 8 8 9 9 10 10 10 13 15 15 15 12 11 12 12 12 12 13
13 20 21 26 24 23 21 20 19 18 16 15 14 13 12 11 10 9 8 8 7 7 6 6 6 6 6 7 8 8 8 8 10 11 12 13 10 9 10 10 10 11 11
11 18 19 25 24 23 22 21 20 18 17 16 15 14 13 11 10 10 9 8 7 6 6 5 5 5 5 5 6 6 6 5 6 8 10 11 8 7 8 8 8 8 9
12 15 16 20 23 23 22 21 20 19 18 17 16 15 14 13 11 11 9 8 7 6 5 4 4 3 3 3 4 4 4 4 3 5 7 9 6 5 6 6 6 6 7
8 11 14 15 19 21 22 22 21 20 19 18 17 16 14 13 13 12 11 9 8 7 6 5 4 3 2 1 1 2 3 2 1 3 6 8 5 3 3 3 3 4 4
10 9 12 12 15 18 20 21 21 21 20 19 18 17 15 13 12 10 11 10 10 8 7 6 5 4 3 1 1 1 2 1 2 4 6 8 5 3 2 1 1 2 2
16 13 10 11 12 16 18 18 18 19 19 19 17 16 15 13 12 9 10 12 11 10 9 9 8 6 4 3 2 2 1 3 5 7 9 9 7 5 4 3 3 3 2
14 14 14 11 13 14 14 15 14 15 16 16 16 15 14 13 12 10 9 10 8 7 6 5 3 3 4 4 5 5 5 6 8 10 11 11 10 9 8 7 6 6 5
10 14 13 12 11 13 14 14 13 13 13 13 15 16 15 12 11 11 10 10 8 6 6 6 5 5 5 7 8 8 9 10 11 13 13 13 13 13 12 11 10 9 9
11 12 12 11 11 11 11 12 13 13 13 15 16 17 18 14 11 11 11 12 11 10 9 9 8 8 8 9 10 11 12 13 15 16 16 15 16 16 15 14 13 13 12
13 12 11 12 12 12 10 9 11 13 14 15 16 18 20 18 15 13 12 12 13 14 13 12 12 10 10 10 11 13 15 16 17 18 19 19 18 18 18 18 17 16 16
10 10 12 12 11 11 10 11 12 14 15 14 16 19 20 20 18 16 13 12 16 17 15 13 11 10 8 9 9 13 15 17 18 19 20 20 21 21 21 21 20 20 19
8 9 11 12 12 11 10 10 11 13 14 14 16 18 20 21 20 17 13 13 17 17 15 10 7 5 6 7 7 8 12 14 17 19 20 21 21 21 23 24 24 23 22
7 8 10 11 11 11 9 9 10 11 13 14 16 17 19 20 21 19 15 16 17 14 12 10 7 6 8 9 9 8 8 10 14 17 18 21 22 23 23 24 26 26 25
3 6 8 9 8 8 6 5 5 6 7 12 14 17 18 19 20 20 16 15 15 9 8 8 9 8 7 8 9 9 8 9 11 13 17 20 22 24 25 24 24 25 27
4 2 4 6 7 7 5 5 5 7 6 5 11 16 18 20 20 19 16 13 13 11 13 12 9 9 9 5 3 6 8 11 14 14 15 16 19 24 24 24 23 23 23
5 2 1 4 6 7 6 4 3 3 4 5 8 14 19 20 20 19 16 11 11 10 11 11 10 6 6 7 6 3 6 6 7 12 12 12 13 15 17 22 23 23 22
8 5 2 1 4 5 6 4 2 1 1 2 5 7 13 18 19 20 19 16 11 11 13 14 14 12 10 8 9 7 6 7 5 5 7 9 10 9 10 15 20 23 24
8 5 4 3 1 3 5 5 6 6 6 7 5 6 7 14 18 20 19 17 13 11 14 14 14 13 12 11 7 11 11 6 6 6 4 5 7 9 11 11 15 20 23
7 7 6 5 4 2 3 5 6 7 8 6 4 6 7 8 13 17 18 15 13 12 14 14 13 14 13 14 10 7 11 11 10 9 12 7 6 8 10 11 11 14 19
7 7 7 6 5 2 1 3 5 8 8 8 8 7 7 6 6 11 14 13 13 12 14 15 14 14 15 15 14 10 9 7 8 12 17 13 11 7 10 11 11 12 17
Wind_Direction
196 184 184 175 172 171 169 166 162 156 151 145 138 129 120 113 107 101 95 88 83 81 80 76 74 72 71 69 67 65 63 60 57 54 52 58 68 70 70 69 63 59 62
166 177 183 175 174 174 173 170 166 161 156 152 146 139 131 123 116 110 103 95 89 84 81 78 76 74 74 73 72 71 69 66 61 55 48 42 57 69 66 65 66 64 63
156 172 182 176 176 175 175 173 169 166 163 159 154 147 140 132 125 117 109 100 94 89 84 80 78 76 76 76 75 75 73 68 61 52 42 32 38 67 67 65 64 63 63
161 171 181 176 177 177 177 176 173 171 169 166 162 155 149 144 137 128 119 110 104 96 90 86 82 80 79 79 78 77 74 67 59 49 38 29 29 62 65 64 63 62 61
163 172 180 177 178 179 180 179 177 175 174 171 169 165 161 155 149 139 131 123 115 107 99 92 87 84 83 83 82 80 76 66 54 45 36 27 25 59 66 64 62 62 60
164 173 181 178 180 182 182 182 181 179 178 177 175 172 170 166 159 152 144 136 128 120 111 100 92 87 86 87 87 84 79 67 51 42 31 23 20 57 66 65 64 63 61
164 173 183 181 182 184 185 185 184 184 183 182 181 180 178 175 169 163 158 151 145 136 125 113 102 92 87 89 93 90 83 67 49 37 23 13 15 59 64 62 61 61 61
162 172 183 184 185 187 188 188 188 188 189 188 187 187 186 183 179 175 173 168 163 154 144 132 118 104 93 89 95 97 89 69 50 29 12 3 13 59 62 60 59 58 58
165 172 184 190 188 190 191 192 192 193 193 193 193 193 192 191 189 187 186 183 181 175 167 156 142 125 108 94 97 104 101 82 55 15 358 351 4 50 59 57 54 55 54
169 180 187 193 189 190 192 195 195 196 197 198 198 197 197 197 198 198 195 195 196 195 191 188 181 170 151 126 112 125 124 100 38 336 333 332 342 22 46 50 44 46 48
187 194 193 195 191 188 190 196 198 199 201 201 201 200 200 198 198 202 194 203 208 209 210 212 213 213 211 235 297 214 152 174 264 290 300 310 312 318 333 355 358 2 16
197 197 196 196 191 186 188 194 197 198 200 201 200 200 196 189 190 195 196 208 218 221 224 226 228 230 218 212 290 338 219 238 254 270 281 293 291 287 283 280 280 284 290
198 196 198 195 191 186 186 188 191 191 194 196 195 193 184 181 185 190 196 209 225 234 231 240 250 197 189 210 240 258 255 250 253 261 270 280 279 276 273 268 265 265 267
196 201 198 193 191 191 187 185 186 186 188 188 190 188 179 175 180 185 192 201 211 216 216 219 222 225 227 233 240 246 249 249 251 257 263 268 272 272 270 267 263 261 259
206 201 197 192 193 191 188 187 187 189 190 190 189 190 187 182 184 191 199 206 212 216 217 220 226 234 241 246 247 246 248 249 251 254 257 261 267 268 268 267 264 261 258
210 201 193 195 194 190 193 193 192 191 191 190 192 194 195 193 192 194 201 209 215 218 222 224 228 232 241 248 252 250 250 252 253 253 255 257 261 264 265 265 264 262 260
212 196 192 196 192 193 197 196 193 191 191 194 197 199 200 200 199 199 203 211 218 221 222 225 231 236 246 248 251 252 252 252 251 252 253 253 254 258 261 262 263 262 261
204 190 191 197 195 198 199 197 194 192 195 200 201 202 205 206 205 203 209 218 219 216 215 215 217 223 236 240 248 250 249 250 250 251 251 250 250 250 253 256 259 260 260
196 185 184 192 192 195 193 194 196 195 202 205 204 206 209 210 209 208 217 222 215 210 213 220 214 212 231 239 245 249 246 248 249 250 248 247 245 244 245 250 253 254 255
158 176 182 190 187 177 174 180 191 206 212 211 211 215 213 214 213 215 223 222 209 207 216 218 225 217 225 237 253 259 249 244 244 244 246 247 244 241 240 240 243 247 250
59 130 180 183 179 164 166 181 199 222 219 220 222 222 218 218 216 217 227 221 211 218 225 220 219 225 232 213 245 276 263 244 243 243 240 240 241 239 236 234 235 236 242
33 33 168 187 182 182 182 172 182 193 215 220 225 227 225 223 221 223 226 228 218 224 228 221 212 215 223 191 195 239 294 295 246 238 235 234 237 236 235 235 233 233 234
25 12 13 195 187 187 172 146 124 105 330 253 232 233 230 227 227 227 228 228 225 221 230 227 219 217 230 214 202 200 227 250 294 261 235 234 233 229 232 234 234 234 233
14 16 30 46 118 165 165 174 192 210 233 238 231 234 234 227 229 230 232 230 229 227 231 232 224 222 224 230 214 222 229 214 237 289 262 244 237 232 231 233 234 233 233
21 28 33 49 61 106 171 194 207 232 246 259 257 253 247 235 232 233 233 232 233 233 234 234 229 222 222 230 223 211 230 239 233 246 269 259 244 231 229 228 229 231 231
25 29 31 42 42 43 157 210 223 242 258 272 273 268 264 253 242 236 235 235 237 237 237 237 235 229 229 230 231 222 213 213 216 225 248 258 258 239 224 227 226 227 229
Height
1541 1542 1545 1547 1549 1551 1553 1555 1556 1557 1558 1559 1560 1561 1562 1562 1562 1563 1563 1563 1563 1563 1562 1562 1562 1562 1561 1561 1561 1562 1562 1562 1562 1562 1562 1563 1563 1563 1562 1562 1562 1562 1563
1540 1542 1544 1546 1548 1551 1553 1555 1556 1557 1558 1560 1561 1561 1562 1563 1563 1563 1564 1564 1564 1564 1563 1563 1563 1563 1562 1562 1562 1562 1563 1562 1563 1563 1563 1563 1564 1564 1564 1563 1563 1563 1563
1540 1541 1543 1545 1548 1550 1552 1554 1556 1557 1559 1560 1561 1562 1562 1563 1563 1564 1564 1564 1564 1564 1564 1564 1564 1563 1563 1563 1563 1563 1563 1563 1564 1564 1564 1564 1565 1565 1565 1564 1564 1564 1564
1539 1541 1543 1545 1547 1550 1552 1554 1556 1557 1559 1560 1561 1562 1563 1563 1564 1564 1564 1565 1565 1565 1565 1564 1564 1564 1564 1564 1564 1564 1564 1564 1565 1565 1565 1565 1565 1566 1566 1565 1565 1565 1564
1539 1540 1542 1544 1547 1549 1552 1554 1556 1557 1559 1560 1561 1562 1563 1563 1564 1564 1565 1565 1565 1565 1565 1565 1565 1565 1565 1565 1565 1565 1565 1565 1566 1566 1566 1566 1566 1567 1566 1566 1565 1565 1565
1538 1540 1542 1544 1546 1549 1551 1553 1555 1557 1559 1560 1561 1562 1563 1564 1564 1565 1565 1565 1565 1565 1565 1566 1566 1566 1566 1566 1566 1566 1566 1566 1567 1567 1567 1567 1566 1567 1567 1566 1566 1565 1565
1537 1539 1541 1543 1545 1548 1550 1553 1555 1557 1558 1560 1561 1562 1563 1564 1564 1565 1565 1565 1565 1566 1566 1566 1566 1566 1567 1567 1567 1567 1567 1567 1567 1567 1567 1567 1567 1567 1567 1566 1566 1565 1565
1536 1538 1540 1542 1544 1547 1549 1551 1554 1556 1558 1559 1561 1562 1563 1564 1564 1565 1565 1565 1566 1566 1566 1566 1567 1567 1567 1567 1567 1567 1567 1567 1567 1568 1567 1567 1567 1567 1567 1566 1566 1565 1565
1535 1536 1538 1540 1542 1545 1547 1550 1552 1554 1556 1558 1560 1561 1562 1563 1564 1564 1565 1565 1566 1566 1566 1567 1567 1567 1567 1567 1567 1567 1567 1567 1568 1568 1568 1567 1567 1567 1566 1566 1565 1565 1564
1532 1534 1536 1538 1540 1543 1545 1548 1550 1553 1555 1557 1559 1560 1561 1562 1563 1564 1565 1565 1566 1566 1566 1566 1567 1567 1567 1567 1567 1567 1567 1567 1567 1567 1567 1567 1567 1566 1566 1565 1565 1564 1564
1529 1531 1533 1535 1537 1540 1543 1545 1548 1550 1553 1555 1557 1558 1560 1561 1562 1563 1564 1565 1565 1566 1566 1566 1566 1566 1567 1567 1566 1566 1566 1566 1566 1566 1566 1566 1566 1565 1565 1564 1564 1563 1563
1526 1528 1530 1532 1535 1537 1540 1543 1545 1548 1550 1552 1554 1556 1558 1559 1561 1562 1563 1564 1564 1565 1565 1565 1566 1566 1566 1566 1566 1566 1565 1565 1565 1565 1565 1564 1564 1564 1564 1563 1563 1562 1561
1524 1525 1527 1529 1532 1534 1537 1539 1542 1545 1547 1550 1552 1554 1555 1557 1559 1560 1561 1562 1563 1563 1564 1564 1564 1564 1565 1565 1564 1564 1564 1564 1564 1563 1563 1563 1562 1562 1562 1561 1561 1560 1560
1520 1522 1525 1527 1529 1531 1534 1537 1539 1542 1544 1546 1549 1551 1553 1555 1556 1558 1559 1560 1561 1562 1562 1563 1563 1563 1563 1563 1562 1562 1562 1562 1561 1561 1561 1560 1560 1559 1559 1559 1558 1558 1557
1516 1519 1522 1524 1526 1529 1531 1534 1536 1538 1541 1544 1546 1548 1550 1552 1554 1555 1557 1558 1559 1559 1560 1560 1560 1560 1560 1559 1559 1559 1559 1559 1558 1558 1558 1557 1556 1556 1556 1555 1555 1555 1555
1512 1515 1519 1521 1524 1526 1528 1530 1533 1536 1538 1541 1543 1545 1547 1549 1551 1552 1553 1554 1555 1556 1556 1557 1556 1556 1556 1555 1555 1555 1555 1555 1554 1554 1554 1553 1553 1552 1552 1551 1551 1551 1551
1508 1511 1514 1517 1520 1523 1525 1527 1530 1532 1535 1537 1539 1542 1543 1545 1547 1548 1549 1550 1551 1552 1552 1552 1552 1551 1551 1550 1550 1550 1550 1549 1549 1549 1548 1548 1548 1547 1547 1547 1546 1546 1547
1505 1507 1510 1513 1516 1519 1521 1524 1527 1529 1531 1533 1536 1538 1539 1541 1542 1543 1544 1545 1546 1547 1547 1546 1546 1545 1545 1544 1544 1544 1544 1543 1542 1542 1542 1541 1541 1541 1541 1541 1541 1540 1541
1503 1504 1507 1510 1512 1515 1518 1521 1523 1525 1527 1529 1531 1533 1534 1536 1537 1538 1538 1539 1540 1540 1540 1540 1540 1539 1538 1538 1537 1536 1535 1535 1534 1534 1533 1533 1533 1533 1534 1534 1534 1534 1534
1503 1504 1505 1507 1510 1512 1515 1517 1519 1521 1523 1525 1526 1528 1529 1530 1531 1532 1532 1532 1533 1533 1533 1533 1533 1532 1532 1531 1529 1526 1526 1525 1524 1523 1523 1523 1524 1524 1525 1525 1526 1526 1526
1505 1505 1505 1507 1508 1510 1512 1514 1516 1517 1519 1520 1521 1523 1524 1524 1525 1525 1525 1525 1525 1525 1525 1525 1525 1524 1523 1524 1521 1517 1515 1514 1512 1512 1513 1513 1513 1514 1514 1514 1515 1516 1516
1507 1506 1506 1507 1508 1509 1511 1512 1513 1515 1515 1516 1517 1517 1518 1518 1518 1518 1518 1517 1517 1516 1516 1516 1516 1515 1514 1516 1514 1511 1505 1501 1499 1500 1500 1500 1501 1502 1502 1503 1503 1504 1505
1509 1509 1508 1508 1508 1509 1510 1511 1511 1512 1512 1512 1512 1512 1512 1512 1511 1511 1510 1509 1509 1508 1507 1507 1507 1506 1505 1505 1505 1505 1501 1492 1491 1488 1488 1489 1490 1491 1492 1493 1493 1494 1495
1512 1511 1510 1510 1509 1509 1510 1510 1510 1509 1509 1509 1508 1507 1507 1506 1505 1504 1503 1501 1500 1499 1497 1497 1497 1495 1495 1494 1494 1493 1492 1490 1488 1480 1478 1479 1479 1479 1481 1483 1483 1484 1485
1514 1513 1512 1511 1511 1510 1510 1509 1509 1508 1506 1505 1504 1502 1501 1500 1498 1497 1495 1494 1492 1490 1488 1488 1487 1485 1484 1483 1482 1481 1480 1479 1477 1475 1467 1466 1467 1467 1469 1470 1471 1472 1473
1516 1515 1513 1513 1512 1511 1510 1509 1507 1506 1504 1502 1500 1498 1496 1494 1492 1491 1488 1486 1484 1482 1480 1479 1477 1476 1474 1472 1472 1470 1469 1468 1465 1464 1459 1455 1454 1453 1455 1456 1456 1458 1461